When you browse on this site, cookies collect data to enhance your experience and personalize the content and advertising you see.
Visit our Privacy Policy to learn more. By continuing to use the site, you agree to this use of cookies and data.
  • In Portugal
  • List of Countries
  • For 7 days
  • Water Temperature
  • Weather Map
  • Weather Widgets
  • user-avatar
    Login

    Hourly Weather Nuwejba

    Today, 15 October, Tuesday

    Time Temperature Precipitation Wind Pressure Humidity
    00:00 +24°C° 0 mm 1 mps 692 mmHg 42%
    01:00 +22°C° 0 mm 0 mps 692 mmHg 43%
    02:00 +21°C° 0 mm 0 mps 692 mmHg 44%
    03:00 +21°C° 0.1 mm 0 mps 692 mmHg 44%
    04:00 +23°C° 0.1 mm 1 mps 692 mmHg 45%
    05:00 +23°C° 0.1 mm 1 mps 691 mmHg 45%
    06:00 +25°C° 0 mm 1 mps 692 mmHg 39%
    07:00 +27°C° 0 mm 1 mps 693 mmHg 33%
    08:00 +29°C° 0 mm 1 mps 693 mmHg 28%
    09:00 +31°C° 0 mm 2 mps 694 mmHg 24%
    10:00 +34°C° 0 mm 3 mps 694 mmHg 21%
    11:00 +36°C° 0 mm 3 mps 694 mmHg 18%
    12:00 +35°C° 0 mm 3 mps 694 mmHg 18%
    13:00 +35°C° 0 mm 3 mps 693 mmHg 18%
    14:00 +35°C° 0 mm 3 mps 693 mmHg 19%
    15:00 +33°C° 0.3 mm 4 mps 693 mmHg 22%
    16:00 +32°C° 0.3 mm 4 mps 692 mmHg 25%
    17:00 +30°C° 0.3 mm 4 mps 692 mmHg 28%
    18:00 +29°C° 0.1 mm 3 mps 692 mmHg 31%
    19:00 +27°C° 0.1 mm 2 mps 692 mmHg 34%
    20:00 +26°C° 0.1 mm 2 mps 692 mmHg 37%
    21:00 +26°C° 0 mm 2 mps 692 mmHg 38%
    22:00 +25°C° 0 mm 2 mps 692 mmHg 39%
    23:00 +25°C° 0 mm 2 mps 692 mmHg 39%

    Tomorrow, 16 October, Wednesday

    Time Temperature Precipitation Wind Pressure Humidity
    00:00 +24°C° 0 mm 2 mps 692 mmHg 40%
    01:00 +24°C° 0 mm 1 mps 692 mmHg 41%
    02:00 +23°C° 0 mm 1 mps 692 mmHg 41%
    03:00 +23°C° 0 mm 1 mps 692 mmHg 42%
    04:00 +23°C° 0 mm 1 mps 692 mmHg 42%
    05:00 +23°C° 0 mm 1 mps 692 mmHg 43%
    06:00 +24°C° 0 mm 1 mps 692 mmHg 39%
    07:00 +26°C° 0 mm 1 mps 693 mmHg 35%
    08:00 +28°C° 0 mm 2 mps 693 mmHg 31%
    09:00 +29°C° 0 mm 2 mps 693 mmHg 29%
    10:00 +31°C° 0 mm 2 mps 693 mmHg 26%
    11:00 +32°C° 0 mm 2 mps 693 mmHg 23%
    12:00 +32°C° 0.1 mm 2 mps 693 mmHg 23%
    13:00 +33°C° 0.1 mm 3 mps 692 mmHg 23%
    14:00 +34°C° 0.1 mm 3 mps 692 mmHg 22%
    15:00 +31°C° 0.3 mm 2 mps 692 mmHg 26%
    16:00 +30°C° 0.3 mm 2 mps 692 mmHg 29%
    17:00 +29°C° 0.3 mm 1 mps 692 mmHg 32%
    18:00 +28°C° 0.1 mm 2 mps 692 mmHg 41%
    19:00 +27°C° 0.1 mm 2 mps 692 mmHg 50%
    20:00 +25°C° 0.1 mm 3 mps 692 mmHg 58%
    21:00 +25°C° 0 mm 3 mps 692 mmHg 65%
    22:00 +24°C° 0 mm 3 mps 692 mmHg 71%
    23:00 +23°C° 0 mm 2 mps 692 mmHg 78%

    Day after tomorrow, 17 October, Thursday

    Time Temperature Precipitation Wind Pressure Humidity
    00:00 +23°C° 0 mm 2 mps 692 mmHg 79%
    01:00 +21°C° 0 mm 2 mps 692 mmHg 80%
    02:00 +21°C° 0 mm 2 mps 692 mmHg 82%
    03:00 +21°C° 0 mm 2 mps 692 mmHg 81%
    04:00 +20°C° 0 mm 2 mps 692 mmHg 81%
    05:00 +20°C° 0 mm 2 mps 692 mmHg 81%
    06:00 +21°C° 0 mm 2 mps 693 mmHg 75%
    07:00 +23°C° 0 mm 2 mps 693 mmHg 70%
    08:00 +24°C° 0 mm 2 mps 693 mmHg 64%
    09:00 +26°C° 0 mm 2 mps 693 mmHg 57%
    10:00 +27°C° 0 mm 2 mps 693 mmHg 50%
    11:00 +29°C° 0 mm 2 mps 693 mmHg 42%
    12:00 +30°C° 0 mm 2 mps 693 mmHg 38%
    13:00 +31°C° 0 mm 2 mps 693 mmHg 33%
    14:00 +34°C° 0 mm 2 mps 693 mmHg 28%
    15:00 +31°C° 0.1 mm 3 mps 693 mmHg 33%
    16:00 +30°C° 0.1 mm 3 mps 693 mmHg 38%
    17:00 +29°C° 0.1 mm 4 mps 693 mmHg 43%
    18:00 +27°C° 0 mm 4 mps 693 mmHg 50%
    19:00 +26°C° 0 mm 4 mps 693 mmHg 56%
    20:00 +25°C° 0 mm 4 mps 693 mmHg 62%
    21:00 +23°C° 0 mm 4 mps 693 mmHg 65%
    22:00 +22°C° 0 mm 3 mps 693 mmHg 68%
    23:00 +21°C° 0 mm 2 mps 693 mmHg 71%

    18 October, Friday

    Time Temperature Precipitation Wind Pressure Humidity
    00:00 +21°C° 0 mm 2 mps 692 mmHg 70%
    01:00 +21°C° 0 mm 2 mps 692 mmHg 69%
    02:00 +20°C° 0 mm 2 mps 692 mmHg 69%
    03:00 +20°C° 0 mm 2 mps 692 mmHg 66%
    04:00 +20°C° 0 mm 2 mps 692 mmHg 64%
    05:00 +19°C° 0 mm 2 mps 692 mmHg 62%
    06:00 +20°C° 0 mm 2 mps 692 mmHg 60%
    07:00 +21°C° 0 mm 2 mps 693 mmHg 58%
    08:00 +23°C° 0 mm 2 mps 693 mmHg 57%
    09:00 +25°C° 0 mm 2 mps 693 mmHg 51%
    10:00 +27°C° 0 mm 2 mps 693 mmHg 45%
    11:00 +28°C° 0 mm 2 mps 694 mmHg 39%
    12:00 +29°C° 0 mm 3 mps 693 mmHg 36%
    13:00 +30°C° 0 mm 3 mps 693 mmHg 34%
    14:00 +32°C° 0 mm 4 mps 692 mmHg 31%
    15:00 +30°C° 0 mm 4 mps 692 mmHg 32%
    16:00 +29°C° 0 mm 5 mps 692 mmHg 34%
    17:00 +27°C° 0 mm 6 mps 692 mmHg 35%
    18:00 +26°C° 0 mm 5 mps 692 mmHg 37%
    19:00 +25°C° 0 mm 4 mps 692 mmHg 39%
    20:00 +23°C° 0 mm 4 mps 692 mmHg 41%
    21:00 +22°C° 0 mm 3 mps 692 mmHg 47%
    22:00 +21°C° 0 mm 3 mps 692 mmHg 53%
    23:00 +20°C° 0 mm 2 mps 692 mmHg 58%

    19 October, Saturday

    Time Temperature Precipitation Wind Pressure Humidity
    00:00 +20°C° 0 mm 2 mps 692 mmHg 58%
    01:00 +19°C° 0 mm 2 mps 692 mmHg 58%
    02:00 +19°C° 0 mm 2 mps 692 mmHg 59%
    03:00 +18°C° 0 mm 2 mps 692 mmHg 55%
    04:00 +18°C° 0 mm 2 mps 692 mmHg 52%
    05:00 +18°C° 0 mm 2 mps 692 mmHg 49%
    06:00 +19°C° 0 mm 2 mps 692 mmHg 42%
    07:00 +21°C° 0 mm 2 mps 693 mmHg 35%
    08:00 +24°C° 0 mm 2 mps 693 mmHg 28%
    09:00 +25°C° 0 mm 2 mps 694 mmHg 25%
    10:00 +27°C° 0 mm 3 mps 694 mmHg 23%
    11:00 +29°C° 0 mm 3 mps 694 mmHg 20%
    12:00 +30°C° 0 mm 4 mps 694 mmHg 20%
    13:00 +30°C° 0 mm 5 mps 693 mmHg 19%
    14:00 +32°C° 0 mm 6 mps 693 mmHg 19%
    15:00 +29°C° 0 mm 6 mps 693 mmHg 22%
    16:00 +28°C° 0 mm 6 mps 693 mmHg 26%
    17:00 +27°C° 0 mm 6 mps 693 mmHg 29%
    18:00 +26°C° 0 mm 6 mps 693 mmHg 34%
    19:00 +23°C° 0 mm 5 mps 693 mmHg 40%
    20:00 +22°C° 0 mm 4 mps 694 mmHg 46%
    21:00 +21°C° 0 mm 3 mps 694 mmHg 52%
    22:00 +21°C° 0 mm 3 mps 694 mmHg 59%
    23:00 +20°C° 0 mm 2 mps 694 mmHg 66%

    20 October, Sunday

    Time Temperature Precipitation Wind Pressure Humidity
    00:00 +19°C° 0 mm 2 mps 693 mmHg 64%
    01:00 +20°C° 0 mm 1 mps 693 mmHg 62%
    02:00 +20°C° 0 mm 1 mps 693 mmHg 60%
    03:00 +20°C° 0 mm 1 mps 693 mmHg 58%
    04:00 +19°C° 0 mm 1 mps 692 mmHg 57%
    05:00 +18°C° 0 mm 2 mps 692 mmHg 56%
    06:00 +20°C° 0 mm 2 mps 693 mmHg 50%
    07:00 +21°C° 0 mm 2 mps 693 mmHg 44%
    08:00 +24°C° 0 mm 2 mps 694 mmHg 39%
    09:00 +25°C° 0 mm 3 mps 694 mmHg 33%
    10:00 +27°C° 0 mm 3 mps 694 mmHg 28%
    11:00 +28°C° 0 mm 4 mps 695 mmHg 22%
    12:00 +29°C° 0 mm 5 mps 694 mmHg 21%
    13:00 +29°C° 0 mm 6 mps 694 mmHg 19%
    14:00 +30°C° 0 mm 7 mps 694 mmHg 18%
    15:00 +28°C° 0 mm 7 mps 693 mmHg 22%
    16:00 +27°C° 0 mm 7 mps 693 mmHg 25%
    17:00 +24°C° 0 mm 7 mps 693 mmHg 29%
    18:00 +23°C° 0 mm 6 mps 693 mmHg 34%
    19:00 +22°C° 0 mm 5 mps 693 mmHg 39%
    20:00 +21°C° 0 mm 4 mps 694 mmHg 43%
    21:00 +21°C° 0 mm 4 mps 694 mmHg 48%
    22:00 +20°C° 0 mm 3 mps 694 mmHg 52%
    23:00 +19°C° 0 mm 3 mps 694 mmHg 56%
    Show more